Terminal Aerodrome Forecast
Issued by NWS Charleston, WV

Current Version | Previous Version | Graphics & Text | Print | Product List | Glossary On
Versions: 1 2 3 4 5 6 7 8 9 10 11 12 13 14 15 16 17 18 19 20 21 22
000
FTUS41 KRLX 202300
TAFBKW
TAF
KBKW 202330Z 2100/2124 13006KT P6SM SKC
     FM210800 00000KT P6SM FEW250
     FM211600 26004KT P6SM SCT250=

USA.gov is the U.S. government's official web portal to all federal, state and local government web resources and services.